Tracking 29059 objects as of 19-Jun-2024
HD Live streaming from Space Station
objects crossing your sky now

OPS 0203 (DMSP 5A F2)

Track OPS 0203 (DMSP 5A F2) now!
10-day predictions
OPS 0203 (DMSP 5A F2) is classified as:


NORAD ID: 4512
Int'l Code: 1970-070A
Perigee: 734.0 km
Apogee: 826.8 km
Inclination: 98.8 °
Period: 100.3 minutes
Semi major axis: 7151 km
RCS: 0.9702 m2 (medium)
Launch date: September 3, 1970
Source: United States (US)
Launch site: AIR FORCE WESTERN TEST RANGE (AFWTR)
Your satellite tracking list
Your tracking list is empty




NASA's NSSDC Master Catalog

Two Line Element Set (TLE):
1 04512U 70070A   24170.77785579  .00000420  00000-0  15819-3 0  9998
2 04512  98.8285  89.1306 0064895  72.1826 288.6425 14.35538109807075
Source of the keplerian elements: AFSPC